Volver al catálogo

COSMOS 1477

ActivoMilitarLEO
NORAD 14175·PAYLOAD·🇷🇺 Russia

Lanzado Jul 6, 1983 desde Plesetsk Cosmodrome

Loading…

Próximos Pases (próximas 24 horas)

TLE

ActualizadoSource: Space-Track

Época: Sep 14, 2026, 07:03 UTC

1 14175U 83069E   26257.29390757 -.00000006  00000-0  64856-4 0  9998
2 14175  74.0261 196.2703 0001908  14.7057 152.0677 12.50458267971724

Sigue COSMOS 1477 en tiempo real con AllMySat

Download on the App Store